Miscellaneous Local Product
Issued by NWS Hastings, NE

Home | Current Version | Previous Version | Graphics & Text | Print | Product List | Glossary On
Versions: 1 2 3 4 5 6 7 8 9 10 11 12 13 14 15 16 17 18 19 20 21 22 23 24 25 26 27 28 29 30 31 32 33 34 35 36 37 38 39 40 41 42 43 44 45 46 47 48 49 50
000
AXUS43 KGID 260702
MISGRI

GID CWA HOURLY WEATHER ROUNDUP
NATIONAL WEATHER SERVICE HASTINGS NE
200 AM CDT THU MAY 26 2016

NOTE: "FAIR" INDICATES FEW OR NO CLOUDS BELOW 12,000 FEET WITH NO
SIGNIFICANT WEATHER AND/OR OBSTRUCTIONS TO VISIBILITY.

...SOUTH CENTRAL NEBRASKA...

CITY           SKY/WX    TMP DP  RH WIND       PRES   REMARKS
GRAND ISLAND   CLOUDY    60  56  86 NE13      29.84F
HASTINGS       PTCLDY    60  51  72 SE6       29.82F
KEARNEY        PTCLDY    61  50  67 N12       29.85R
ORD            MOCLDY    56  52  86 CALM      29.87F
YORK           CLOUDY    59  55  88 W3        29.87S
AURORA         CLOUDY    60  58  91 N9        29.84F
LEXINGTON      CLEAR     56  51  84 N7        29.87R
HOLDREGE       CLEAR     63  46  54 CALM      29.84F
HEBRON         CLEAR     61  54  77 CALM      29.87F

...NEBRASKA PANHANDLE...

CITY           SKY/WX    TMP DP  RH WIND       PRES   REMARKS
CHADRON        CLEAR     45  40  82 S3        29.91F
ALLIANCE       CLOUDY    44  42  93 NW5       29.91F
SCOTTSBLUFF    CLOUDY    47  42  83 W6        29.94F
SIDNEY         MOCLDY    47  44  90 SW8       29.96F

...WESTERN AND NORTH CENTRAL NEBRASKA...

CITY           SKY/WX    TMP DP  RH WIND       PRES   REMARKS
VALENTINE      PTCLDY    51  46  83 CALM      29.90F
AINSWORTH      CLEAR     50  47  91 S6        29.90F
ONEILL         PTCLDY    59  52  78 SW5       29.89F
BROKEN BOW     CLOUDY    54  50  86 NW3       29.91R
IMPERIAL       CLOUDY    53  49  86 NW3       29.92F
NORTH PLATTE   CLOUDY    52  51  97 NW5       29.90F
MCCOOK         CLEAR     53  48  83 W3        29.88S

...EASTERN NEBRASKA...

CITY           SKY/WX    TMP DP  RH WIND       PRES   REMARKS
NORFOLK        CLOUDY    59  55  87 NW5       29.85F
SO SIOUX CITY  TSTM      62  57  83 NW6       29.86R
TEKAMAH        TSTM      64  57  78 NW26G37   29.82F
COLUMBUS       CLOUDY    61  52  72 SW6       29.85F
ALBION         CLOUDY    59  53  80 CALM      29.87F
OMAHA EPPLEY   CLOUDY    64  57  78 NW12      29.79F THUNDER
OFFUTT AFB     CLOUDY    66  61  82 W6        29.78F THUNDER
MILLARD        CLOUDY    64  58  80 NW9       29.81F THUNDER
LINCOLN        CLOUDY    62  58  86 W6        29.85F
NEBRASKA CITY  CLOUDY    70  70 100 SW8       29.83F THUNDER
BEATRICE       CLEAR     62  56  82 CALM      29.88S
FALLS CITY     CLEAR     64  61  90 CALM      29.82F

...NORTHERN KANSAS...

CITY           SKY/WX    TMP DP  RH WIND       PRES   REMARKS
GOODLAND       PTCLDY    49  46  90 E7        29.92F
HILL CITY      CLEAR     55  51  86 SE6       29.89R
NORTON         SUNNY     55  46  71 CALM      29.87R
PHILLIPSBURG   CLEAR     54  52  94 SE5       29.87S
SMITH CENTER   CLEAR     55  52  88 E9        29.86F
BELOIT         CLEAR     61  54  77 NE8       29.85F
HAYS           CLEAR     52  48  87 E7        29.88F
RUSSELL        CLEAR     61  57  87 E9        29.87F
CONCORDIA      CLEAR     62  54  74 NE8       29.86F
SALINA         CLEAR     68  64  87 N9        29.85S
TOPEKA         CLOUDY    67  61  81 SW6       29.83S



USA.gov is the U.S. government's official web portal to all federal, state and local government web resources and services.